^^
Your Local Weather - Clay, NY Station Historical Data
Daily Summary for February 4, 2017 Units:  Metric    English   Both
« Previous Day
Next Day »
Daily Weekly Monthly Yearly Custom
  High: Low: Average:
Temperature: -2.6 °C -9.5 °C -6.2 °C
Dew Point: -8.8 °C -12.3 °C -10.6 °C
Humidity: 89% 52% 72%
Wind Speed: 11.3km/h 0km/h 4.2km/h
Wind Gust: 27.4km/h - -
Wind- - West
Pressure: 1026.6 hPa 1020.2 hPa -
Precipitation: 2.79 mm    
Historical Graphs
 
 
Tabular Data for February 4, 2017
Time Temperature Dew Point Pressure Wind Wind Speed Wind Gust Humidity Rainfall Rate (Hourly) solar
00:02 -7.7 °C -10.5 °C 1022.2 hPa West 6.4 km/h 8 km/h 80% 0 mm 0 W/m2
00:08 -7.6 °C -10.6 °C 1022.6 hPa West 6.4 km/h 14.5 km/h 79% 0 mm 0 W/m2
00:14 -7.5 °C -10.7 °C 1022.6 hPa NW 8 km/h 11.3 km/h 78% 0 mm 0 W/m2
00:20 -7.4 °C -10.7 °C 1022.9 hPa WSW 8 km/h 17.7 km/h 77% 0 mm 0 W/m2
00:25 -7.3 °C -10.8 °C 1022.9 hPa West 8 km/h 17.7 km/h 76% 0 mm 0 W/m2
00:32 -7.3 °C -10.7 °C 1022.9 hPa West 6.4 km/h 6.4 km/h 77% 0 mm 0 W/m2
00:38 -7.3 °C -10.7 °C 1022.9 hPa West 6.4 km/h 11.3 km/h 77% 0 mm 0 W/m2
00:44 -7.4 °C -10.6 °C 1023.2 hPa NW 6.4 km/h 11.3 km/h 78% 0 mm 0 W/m2
00:49 -7.4 °C -10.4 °C 1023.2 hPa NNW 4.8 km/h 4.8 km/h 79% 0 mm 0 W/m2
00:55 -7.6 °C -10.1 °C 1022.9 hPa West 4.8 km/h 4.8 km/h 82% 0 mm 0 W/m2
01:02 -7.7 °C -10.1 °C 1022.9 hPa West 4.8 km/h 9.7 km/h 83% 0 mm 0 W/m2
01:08 -7.8 °C -10 °C 1022.9 hPa NW 6.4 km/h 11.3 km/h 84% 0 mm 0 W/m2
01:13 -7.8 °C -9.8 °C 1023.2 hPa WNW 4.8 km/h 6.4 km/h 85% 0 mm 0 W/m2
01:19 -7.8 °C -9.8 °C 1023.2 hPa WNW 3.2 km/h 3.2 km/h 85% 0 mm 0 W/m2
01:26 -7.8 °C -9.8 °C 1023.2 hPa WNW 3.2 km/h 4.8 km/h 85% 0 mm 0 W/m2
01:32 -7.8 °C -9.8 °C 1023.2 hPa West 3.2 km/h 4.8 km/h 86% 0 mm 0 W/m2
01:38 -7.8 °C -9.8 °C 1023.2 hPa West 4.8 km/h 4.8 km/h 86% 0 mm 0 W/m2
01:44 -7.9 °C -9.7 °C 1023.6 hPa NW 4.8 km/h 8 km/h 87% 0 mm 0 W/m2
01:50 -7.9 °C -9.7 °C 1023.6 hPa NW 4.8 km/h 4.8 km/h 87% 0 mm 0 W/m2
01:55 -7.9 °C -9.7 °C 1023.6 hPa WNW 4.8 km/h 4.8 km/h 87% 0 mm 0 W/m2
02:02 -8 °C -9.8 °C 1023.6 hPa WSW 4.8 km/h 6.4 km/h 87% 0 mm 0 W/m2
02:08 -8 °C -9.8 °C 1023.6 hPa WNW 3.2 km/h 6.4 km/h 87% 0 mm 0 W/m2
02:14 -8 °C -9.8 °C 1023.6 hPa WNW 4.8 km/h 6.4 km/h 87% 0 mm 0 W/m2
02:19 -8.1 °C -9.8 °C 1023.6 hPa WNW 4.8 km/h 4.8 km/h 87% 0 mm 0 W/m2
02:26 -8 °C -9.6 °C 1023.9 hPa West 3.2 km/h 4.8 km/h 88% 0 mm 0 W/m2
02:32 -8 °C -9.6 °C 1023.9 hPa West 3.2 km/h 4.8 km/h 88% 0 mm 0 W/m2
02:38 -8 °C -9.6 °C 1023.9 hPa West 3.2 km/h 4.8 km/h 88% 0 mm 0 W/m2
02:43 -8 °C -9.6 °C 1023.9 hPa WSW 3.2 km/h 6.4 km/h 88% 0 mm 0 W/m2
02:50 -8 °C -9.6 °C 1023.9 hPa West 3.2 km/h 6.4 km/h 88% 0 mm 0 W/m2
02:56 -8 °C -9.6 °C 1023.9 hPa West 3.2 km/h 6.4 km/h 88% 0 mm 0 W/m2
03:02 -8 °C -9.6 °C 1023.9 hPa SW 3.2 km/h 6.4 km/h 88% 0 mm 0 W/m2
03:08 -8 °C -9.6 °C 1023.9 hPa WSW 1.6 km/h 6.4 km/h 88% 0 mm 0 W/m2
03:14 -7.9 °C -9.6 °C 1023.9 hPa West 3.2 km/h 3.2 km/h 88% 0 mm 0 W/m2
03:20 -7.9 °C -9.6 °C 1023.9 hPa West 3.2 km/h 3.2 km/h 88% 0 mm 0 W/m2
03:25 -7.9 °C -9.6 °C 1023.9 hPa West 3.2 km/h 6.4 km/h 88% 0 mm 0 W/m2
03:32 -7.9 °C -9.6 °C 1024.3 hPa West 1.6 km/h 3.2 km/h 88% 0 mm 0 W/m2
03:38 -7.9 °C -9.6 °C 1024.3 hPa WSW 3.2 km/h 4.8 km/h 88% 0 mm 0 W/m2
03:44 -7.9 °C -9.6 °C 1024.3 hPa West 3.2 km/h 4.8 km/h 88% 0 mm 0 W/m2
03:50 -7.8 °C -9.5 °C 1024.3 hPa WNW 3.2 km/h 3.2 km/h 88% 0 mm 0 W/m2
03:55 -7.8 °C -9.5 °C 1024.3 hPa WSW 3.2 km/h 3.2 km/h 88% 0 mm 0 W/m2
04:02 -7.8 °C -9.5 °C 1024.3 hPa WNW 1.6 km/h 3.2 km/h 88% 0 mm 0 W/m2
04:08 -7.8 °C -9.4 °C 1024.3 hPa WSW 1.6 km/h 3.2 km/h 88% 0 mm 0 W/m2
04:13 -7.8 °C -9.4 °C 1024.3 hPa WSW 1.6 km/h 1.6 km/h 88% 0 mm 0 W/m2
04:19 -7.7 °C -9.2 °C 1024.3 hPa West 3.2 km/h 3.2 km/h 89% 0 mm 0 W/m2
04:26 -7.7 °C -9.2 °C 1024.6 hPa WSW 3.2 km/h 3.2 km/h 89% 0 mm 0 W/m2
04:32 -7.7 °C -9.2 °C 1024.6 hPa West 3.2 km/h 4.8 km/h 89% 0 mm 0 W/m2
04:38 -7.7 °C -9.2 °C 1024.6 hPa WNW 3.2 km/h 4.8 km/h 89% 0 mm 0 W/m2
04:43 -7.7 °C -9.2 °C 1024.6 hPa West 3.2 km/h 4.8 km/h 89% 0 mm 0 W/m2
04:49 -7.7 °C -9.2 °C 1024.6 hPa West 1.6 km/h 4.8 km/h 89% 0 mm 0 W/m2
04:55 -7.7 °C -9.2 °C 1024.6 hPa WSW 1.6 km/h 4.8 km/h 89% 0 mm 0 W/m2
05:02 -7.7 °C -9.2 °C 1024.6 hPa WSW 1.6 km/h 1.6 km/h 89% 0 mm 0 W/m2
05:08 -7.7 °C -9.2 °C 1024.6 hPa WSW 1.6 km/h 1.6 km/h 89% 0 mm 0 W/m2
05:14 -7.7 °C -9.2 °C 1024.6 hPa Calm   3.2 km/h 89% 0 mm 0 W/m2
05:20 -7.7 °C -9.2 °C 1024.6 hPa Calm     89% 0 mm 0 W/m2
05:25 -7.7 °C -9.3 °C 1024.6 hPa West 1.6 km/h 6.4 km/h 88% 0 mm 0 W/m2
05:32 -7.8 °C -9.6 °C 1024.6 hPa WNW 3.2 km/h 3.2 km/h 87% 0 mm 0 W/m2
05:38 -7.9 °C -9.7 °C 1024.9 hPa WSW 3.2 km/h 6.4 km/h 87% 0 mm 0 W/m2
05:43 -7.9 °C -9.8 °C 1024.9 hPa West 1.6 km/h 3.2 km/h 86% 0 mm 0 W/m2
05:49 -8 °C -10.1 °C 1024.9 hPa WSW 3.2 km/h 6.4 km/h 85% 0 mm 0 W/m2
05:56 -8.1 °C -10.2 °C 1024.9 hPa WSW 3.2 km/h 6.4 km/h 85% 0 mm 0 W/m2
06:02 -8.2 °C -10.2 °C 1024.9 hPa West 1.6 km/h 1.6 km/h 85% 0 mm 0 W/m2
06:08 -8.2 °C -10.3 °C 1024.9 hPa West 1.6 km/h 1.6 km/h 85% 0 mm 0 W/m2
06:14 -8.3 °C -10.5 °C 1024.9 hPa WSW 1.6 km/h 3.2 km/h 84% 0 mm 0 W/m2
06:19 -8.3 °C -10.6 °C 1024.9 hPa West 1.6 km/h 8 km/h 84% 0 mm 0 W/m2
06:25 -8.3 °C -10.7 °C 1024.9 hPa West 3.2 km/h 8 km/h 83% 0 mm 0 W/m2
06:32 -8.3 °C -10.8 °C 1024.9 hPa WSW 1.6 km/h 3.2 km/h 82% 0 mm 0 W/m2
06:38 -8.3 °C -10.8 °C 1024.9 hPa West 1.6 km/h 4.8 km/h 82% 0 mm 0 W/m2
06:43 -8.3 °C -11 °C 1024.9 hPa West 1.6 km/h 6.4 km/h 81% 0 mm 0 W/m2
06:49 -8.3 °C -11.2 °C 1025.3 hPa WSW 1.6 km/h 1.6 km/h 80% 0 mm 0 W/m2
06:55 -8.3 °C -11.3 °C 1025.3 hPa WSW 1.6 km/h 9.7 km/h 79% 0 mm 0 W/m2
07:02 -8.4 °C -11.6 °C 1025.3 hPa WSW 1.6 km/h 3.2 km/h 78% 0 mm 0 W/m2
07:08 -8.5 °C -11.7 °C 1025.3 hPa WSW 3.2 km/h 6.4 km/h 78% 0 mm 0 W/m2
07:14 -8.4 °C -11.6 °C 1025.3 hPa West 4.8 km/h 4.8 km/h 78% 0 mm 0 W/m2
07:19 -8.4 °C -11.9 °C 1025.3 hPa West 4.8 km/h 4.8 km/h 76% 0 mm 0 W/m2
07:25 -8.4 °C -11.9 °C 1025.3 hPa SW 3.2 km/h 4.8 km/h 76% 0 mm 0 W/m2
07:32 -8.5 °C -12 °C 1025.3 hPa West 3.2 km/h 6.4 km/h 76% 0 mm 0 W/m2
07:43 -8.6 °C -12.1 °C 1025.6 hPa WSW 3.2 km/h 4.8 km/h 76% 0 mm 5 W/m2
07:49 -8.6 °C -12.1 °C 1025.3 hPa West 3.2 km/h 6.4 km/h 76% 0 mm 7 W/m2
07:56 -8.4 °C -11.9 °C 1025.3 hPa West 3.2 km/h 6.4 km/h 76% 0 mm 7 W/m2
08:02 -8.3 °C -11.8 °C 1025.3 hPa WSW 3.2 km/h 4.8 km/h 76% 0 mm 9 W/m2
08:08 -8.2 °C -11.7 °C 1025.3 hPa WSW 3.2 km/h 4.8 km/h 76% 0 mm 12 W/m2
08:13 -8.1 °C -11.6 °C 1025.6 hPa West 4.8 km/h 8 km/h 76% 0 mm 14 W/m2
08:19 -7.8 °C -11.5 °C 1025.6 hPa West 4.8 km/h 6.4 km/h 75% 0 mm 21 W/m2
08:26 -7.6 °C -11.4 °C 1026 hPa SW 4.8 km/h 9.7 km/h 74% 0 mm 28 W/m2
08:32 -7.3 °C -11.3 °C 1025.6 hPa WSW 4.8 km/h 6.4 km/h 73% 0 mm 39 W/m2
08:38 -7.1 °C -11.4 °C 1026 hPa West 4.8 km/h 8 km/h 71% 0 mm 51 W/m2
08:43 -6.8 °C -11.4 °C 1026 hPa WSW 6.4 km/h 8 km/h 70% 0 mm 46 W/m2
08:50 -6.6 °C -11.3 °C 1025.6 hPa WSW 8 km/h 8 km/h 69% 0 mm 47 W/m2
08:55 -6.4 °C -11.4 °C 1025.6 hPa WSW 8 km/h 24.1 km/h 68% 0 mm 107 W/m2
09:02 -6.2 °C -11.3 °C 1026 hPa SW 9.7 km/h 9.7 km/h 67% 0 mm 239 W/m2
09:08 -6.1 °C -11.1 °C 1026 hPa SSW 9.7 km/h 19.3 km/h 68% 0 mm 297 W/m2
09:13 -6.1 °C -11.4 °C 1026 hPa SW 11.3 km/h 20.9 km/h 66% 0 mm 313 W/m2
09:20 -5.9 °C -11.4 °C 1026.3 hPa West 11.3 km/h 11.3 km/h 65% 0 mm 327 W/m2
09:25 -5.8 °C -11.4 °C 1026.3 hPa West 11.3 km/h 16.1 km/h 65% 0 mm 338 W/m2
09:32 -5.8 °C -11.5 °C 1026.3 hPa WSW 9.7 km/h 16.1 km/h 64% 0 mm 355 W/m2
09:38 -5.8 °C -11.5 °C 1026.6 hPa WSW 11.3 km/h 16.1 km/h 64% 0 mm 366 W/m2
09:44 -5.6 °C -11.6 °C 1026.6 hPa West 11.3 km/h 11.3 km/h 63% 0 mm 366 W/m2
09:50 -5.4 °C -11.4 °C 1026.6 hPa WSW 9.7 km/h 9.7 km/h 63% 0 mm 390 W/m2
09:55 -5.4 °C -11.7 °C 1026.6 hPa West 9.7 km/h 17.7 km/h 61% 0 mm 403 W/m2
10:02 -5.4 °C -11.6 °C 1026.6 hPa WSW 9.7 km/h 9.7 km/h 62% 0 mm 417 W/m2
10:08 -5.2 °C -11.6 °C 1026.3 hPa West 8 km/h 12.9 km/h 61% 3.05 mm 427 W/m2
10:13 -5.3 °C -11.9 °C 1026.6 hPa WNW 8 km/h 12.9 km/h 60% 2.29 mm 436 W/m2
10:19 -5 °C -11.6 °C 1026.6 hPa West 8 km/h 8 km/h 60% 1.27 mm 446 W/m2
10:26 -5 °C -11.8 °C 1026.6 hPa West 8 km/h 12.9 km/h 59% 1.27 mm 459 W/m2
10:32 -5.1 °C -11.6 °C 1026.6 hPa WSW 8 km/h 17.7 km/h 60% 1.27 mm 469 W/m2
10:38 -5 °C -11.8 °C 1026.6 hPa West 8 km/h 17.7 km/h 59% 1.27 mm 478 W/m2
10:43 -5.2 °C -12 °C 1026.6 hPa WNW 9.7 km/h 16.1 km/h 59% 1.27 mm 489 W/m2
10:50 -5.3 °C -12.1 °C 1026.6 hPa SSW 11.3 km/h 11.3 km/h 59% 0 mm 496 W/m2
10:55 -5.4 °C -11.8 °C 1026.6 hPa SSW 11.3 km/h 11.3 km/h 61% 0 mm 496 W/m2
11:02 -5.3 °C -12.1 °C 1026.6 hPa SW 11.3 km/h 17.7 km/h 59% 0 mm 522 W/m2
11:08 -5.2 °C -12 °C 1026.6 hPa SW 11.3 km/h 17.7 km/h 59% 0 mm 536 W/m2
11:13 -5.1 °C -11.9 °C 1026.6 hPa WNW 9.7 km/h 9.7 km/h 59% 0 mm 575 W/m2
11:20 -5 °C -11.8 °C 1026.6 hPa WSW 9.7 km/h 9.7 km/h 59% 0 mm 619 W/m2
11:25 -4.9 °C -11.9 °C 1026.6 hPa WNW 9.7 km/h 14.5 km/h 58% 0 mm 621 W/m2
11:32 -4.9 °C -11.7 °C 1026.6 hPa West 9.7 km/h 16.1 km/h 59% 0 mm 534 W/m2
11:38 -4.8 °C -12 °C 1026.3 hPa WSW 11.3 km/h 16.1 km/h 57% 0 mm 694 W/m2
11:43 -4.6 °C -11.8 °C 1026.3 hPa WNW 11.3 km/h 14.5 km/h 57% 0 mm 710 W/m2
11:49 -4.4 °C -11.9 °C 1026.3 hPa South 11.3 km/h 11.3 km/h 56% 0 mm 592 W/m2
11:56 -4.9 °C -12.3 °C 1026.3 hPa West 11.3 km/h 11.3 km/h 56% 0 mm 580 W/m2
12:02 -4.4 °C -11.9 °C 1026 hPa West 8 km/h 9.7 km/h 56% 0 mm 636 W/m2
12:08 -4.3 °C -11.8 °C 1026 hPa WNW 9.7 km/h 27.4 km/h 56% 0 mm 642 W/m2
12:14 -4.4 °C -12.1 °C 1026 hPa WNW 8 km/h 11.3 km/h 55% 0 mm 499 W/m2
12:19 -4.4 °C -11.9 °C 1025.6 hPa West 9.7 km/h 9.7 km/h 56% 0 mm 392 W/m2
12:25 -4.1 °C -11.6 °C 1025.6 hPa West 8 km/h 9.7 km/h 56% 0 mm 392 W/m2
12:32 -3.8 °C -11.3 °C 1025.3 hPa WSW 6.4 km/h 16.1 km/h 56% 0 mm 795 W/m2
12:38 -3.8 °C -11.6 °C 1024.9 hPa WSW 8 km/h 16.1 km/h 55% 0 mm 670 W/m2
12:44 -3.6 °C -11.6 °C 1024.9 hPa West 8 km/h 12.9 km/h 54% 0 mm 652 W/m2
12:49 -3.9 °C -11.8 °C 1024.9 hPa WNW 11.3 km/h 11.3 km/h 54% 0 mm 257 W/m2
12:55 -3.4 °C -11.4 °C 1024.9 hPa WNW 8 km/h 11.3 km/h 54% 0 mm 763 W/m2
13:02 -3.1 °C -10.9 °C 1024.6 hPa South 6.4 km/h 11.3 km/h 55% 0 mm 555 W/m2
13:08 -2.6 °C -10.7 °C 1024.6 hPa WNW 4.8 km/h 11.3 km/h 54% 0 mm 584 W/m2
13:13 -3.2 °C -10.8 °C 1024.6 hPa NW 6.4 km/h 12.9 km/h 56% 0 mm 408 W/m2
13:19 -2.7 °C -11.2 °C 1024.3 hPa West 6.4 km/h 9.7 km/h 52% 0 mm 700 W/m2
13:25 -3.1 °C -10.9 °C 1024.3 hPa West 8 km/h 14.5 km/h 55% 0 mm 281 W/m2
13:32 -3.4 °C -10.9 °C 1024.3 hPa NW 8 km/h 11.3 km/h 56% 0 mm 295 W/m2
13:38 -3.3 °C -10.8 °C 1024.3 hPa WSW 6.4 km/h 11.3 km/h 56% 0 mm 255 W/m2
13:43 -3.4 °C -10.9 °C 1024.3 hPa NW 6.4 km/h 12.9 km/h 56% 0 mm 306 W/m2
13:49 -3.2 °C -10.9 °C 1023.9 hPa NW 6.4 km/h 8 km/h 55% 0 mm 726 W/m2
13:56 -2.8 °C -10.6 °C 1023.9 hPa WNW 6.4 km/h 8 km/h 55% 0 mm 269 W/m2
14:02 -3.1 °C -11.1 °C 1023.9 hPa West 6.4 km/h 8 km/h 54% 0 mm 251 W/m2
14:08 -3.1 °C -10.6 °C 1023.9 hPa SW 4.8 km/h 8 km/h 56% 0 mm 239 W/m2
14:14 -2.8 °C -10.8 °C 1023.9 hPa WSW 6.4 km/h 19.3 km/h 54% 0 mm 214 W/m2
14:19 -2.9 °C -10.7 °C 1023.9 hPa West 8 km/h 9.7 km/h 55% 0 mm 183 W/m2
14:25 -3 °C -10.8 °C 1023.9 hPa West 6.4 km/h 9.7 km/h 55% 0 mm 399 W/m2
14:32 -2.9 °C -10.5 °C 1023.9 hPa WSW 8 km/h 9.7 km/h 56% 0 mm 223 W/m2
14:38 -2.8 °C -10.3 °C 1023.6 hPa SW 6.4 km/h 17.7 km/h 56% 0 mm 229 W/m2
14:44 -2.8 °C -10.6 °C 1023.9 hPa WNW 8 km/h 12.9 km/h 55% 0 mm 192 W/m2
14:49 -2.7 °C -10.2 °C 1023.6 hPa West 8 km/h 8 km/h 56% 0 mm 190 W/m2
14:56 -2.7 °C -10.3 °C 1023.6 hPa WSW 4.8 km/h 12.9 km/h 56% 0 mm 193 W/m2
15:02 -2.6 °C -9.9 °C 1023.6 hPa WNW 6.4 km/h 8 km/h 57% 0 mm 174 W/m2
15:08 -2.6 °C -9.9 °C 1023.6 hPa WNW 4.8 km/h 9.7 km/h 57% 0 mm 316 W/m2
15:13 -2.6 °C -10.2 °C 1023.6 hPa WNW 6.4 km/h 11.3 km/h 56% 0 mm 171 W/m2
15:20 -2.7 °C -9.8 °C 1023.6 hPa WNW 4.8 km/h 6.4 km/h 58% 0 mm 113 W/m2
15:25 -2.7 °C -9.6 °C 1023.6 hPa WNW 3.2 km/h 6.4 km/h 59% 0 mm 179 W/m2
15:32 -2.7 °C -9.6 °C 1023.6 hPa WNW 4.8 km/h 4.8 km/h 59% 0 mm 118 W/m2
15:38 -2.7 °C -9.6 °C 1023.6 hPa West 4.8 km/h 4.8 km/h 59% 0 mm 113 W/m2
15:44 -2.8 °C -9.7 °C 1023.6 hPa WSW 4.8 km/h 4.8 km/h 59% 0 mm 95 W/m2
15:50 -2.8 °C -9.5 °C 1023.6 hPa WSW 3.2 km/h 3.2 km/h 60% 0 mm 84 W/m2
15:55 -2.8 °C -9.3 °C 1023.6 hPa WNW 3.2 km/h 6.4 km/h 61% 0 mm 67 W/m2
16:02 -2.8 °C -9.3 °C 1023.6 hPa WNW 3.2 km/h 3.2 km/h 61% 0 mm 62 W/m2
16:08 -2.8 °C -9.5 °C 1023.6 hPa WSW 4.8 km/h 6.4 km/h 60% 0 mm 53 W/m2
16:13 -2.8 °C -9.3 °C 1023.2 hPa WSW 4.8 km/h 8 km/h 61% 0 mm 35 W/m2
16:19 -2.7 °C -9.2 °C 1023.6 hPa SW 4.8 km/h 6.4 km/h 61% 0 mm 30 W/m2
16:26 -2.7 °C -9 °C 1023.2 hPa West 6.4 km/h 8 km/h 62% 0 mm 25 W/m2
16:32 -2.7 °C -9 °C 1023.2 hPa WNW 6.4 km/h 9.7 km/h 62% 0 mm 28 W/m2
16:38 -2.7 °C -9 °C 1023.2 hPa WSW 6.4 km/h 9.7 km/h 62% 0 mm 19 W/m2
16:43 -2.7 °C -8.8 °C 1023.2 hPa WNW 4.8 km/h 4.8 km/h 63% 0 mm 21 W/m2
16:49 -2.7 °C -9 °C 1023.2 hPa West 4.8 km/h 4.8 km/h 62% 0 mm 23 W/m2
16:56 -2.7 °C -8.8 °C 1023.2 hPa WNW 3.2 km/h 8 km/h 63% 0 mm 18 W/m2
17:02 -2.7 °C -9 °C 1023.2 hPa West 4.8 km/h 4.8 km/h 62% 0 mm 12 W/m2
17:08 -2.7 °C -8.8 °C 1023.2 hPa West 3.2 km/h 6.4 km/h 63% 0 mm 9 W/m2
17:13 -2.8 °C -8.8 °C 1023.2 hPa WNW 3.2 km/h 8 km/h 63% 0 mm 7 W/m2
17:19 -2.8 °C -9.1 °C 1023.2 hPa West 3.2 km/h 3.2 km/h 62% 0 mm 0 W/m2
17:25 -2.9 °C -9.2 °C 1023.2 hPa WNW 3.2 km/h 3.2 km/h 62% 0 mm 0 W/m2
17:32 -2.9 °C -9.2 °C 1023.2 hPa West 3.2 km/h 4.8 km/h 62% 0 mm 0 W/m2
17:38 -2.8 °C -9.1 °C 1023.2 hPa West 4.8 km/h 4.8 km/h 62% 0 mm 0 W/m2
17:43 -2.8 °C -9.3 °C 1023.2 hPa SW 3.2 km/h 4.8 km/h 61% 0 mm 0 W/m2
17:49 -2.8 °C -9.5 °C 1023.2 hPa WSW 4.8 km/h 4.8 km/h 60% 0 mm 0 W/m2
17:56 -2.8 °C -9.5 °C 1023.2 hPa WSW 3.2 km/h 4.8 km/h 60% 0 mm 0 W/m2
18:02 -2.9 °C -9.6 °C 1023.2 hPa WSW 1.6 km/h 3.2 km/h 60% 0 mm 0 W/m2
18:08 -3.1 °C -9.7 °C 1023.2 hPa WSW 1.6 km/h 4.8 km/h 60% 0 mm 0 W/m2
18:14 -3.1 °C -9.6 °C 1023.2 hPa WSW 3.2 km/h 6.4 km/h 61% 0 mm 0 W/m2
18:19 -3.1 °C -9.8 °C 1022.9 hPa West 4.8 km/h 4.8 km/h 60% 0 mm 0 W/m2
18:25 -3.2 °C -9.7 °C 1022.9 hPa West 3.2 km/h 4.8 km/h 61% 0 mm 0 W/m2
18:32 -3.4 °C -9.8 °C 1022.9 hPa West 1.6 km/h 3.2 km/h 61% 0 mm 0 W/m2
18:38 -3.5 °C -9.7 °C 1022.9 hPa WSW 3.2 km/h 4.8 km/h 62% 0 mm 0 W/m2
18:44 -3.6 °C -9.8 °C 1022.9 hPa WSW 1.6 km/h 3.2 km/h 62% 0 mm 0 W/m2
18:50 -3.8 °C -9.8 °C 1022.9 hPa Calm     63% 0 mm 0 W/m2
18:55 -3.9 °C -9.9 °C 1022.9 hPa Calm     63% 0 mm 0 W/m2
19:02 -4.1 °C -9.9 °C 1022.9 hPa WSW 1.6 km/h 4.8 km/h 64% 0 mm 0 W/m2
19:08 -4.2 °C -10 °C 1022.9 hPa Calm   4.8 km/h 64% 0 mm 0 W/m2
19:13 -4.4 °C -10.1 °C 1022.9 hPa Calm     65% 0 mm 0 W/m2
19:19 -4.7 °C -10.3 °C 1022.9 hPa Calm     65% 0 mm 0 W/m2
19:26 -5 °C -10.2 °C 1022.9 hPa Calm     67% 0 mm 0 W/m2
19:32 -5.5 °C -10.7 °C 1022.9 hPa Calm     67% 0 mm 0 W/m2
19:38 -6.1 °C -10.8 °C 1022.6 hPa Calm     69% 0 mm 0 W/m2
19:43 -6.3 °C -10.9 °C 1022.6 hPa Calm     70% 0 mm 0 W/m2
19:49 -6.6 °C -11 °C 1022.6 hPa Calm     71% 0 mm 0 W/m2
19:56 -6.9 °C -11.2 °C 1022.6 hPa Calm     72% 0 mm 0 W/m2
20:02 -7.3 °C -11.3 °C 1022.6 hPa Calm     73% 0 mm 0 W/m2
20:08 -7.6 °C -11.6 °C 1022.6 hPa Calm     73% 0 mm 0 W/m2
20:13 -7.9 °C -11.8 °C 1022.2 hPa Calm     74% 0 mm 0 W/m2
20:19 -8.2 °C -11.8 °C 1022.2 hPa Calm     75% 0 mm 0 W/m2
20:26 -8.3 °C -11.8 °C 1022.2 hPa Calm     76% 0 mm 0 W/m2
20:32 -8.4 °C -11.8 °C 1022.2 hPa Calm     77% 0 mm 0 W/m2
20:38 -8.6 °C -11.9 °C 1022.2 hPa Calm     77% 0 mm 0 W/m2
20:43 -8.8 °C -12.1 °C 1021.9 hPa Calm     77% 0 mm 0 W/m2
20:50 -9.1 °C -12.2 °C 1022.2 hPa Calm     78% 0 mm 0 W/m2
20:55 -9.2 °C -12.2 °C 1021.9 hPa Calm     79% 0 mm 0 W/m2
21:02 -9.3 °C -12.1 °C 1021.9 hPa Calm     80% 0 mm 0 W/m2
21:08 -9.3 °C -12 °C 1021.9 hPa Calm     81% 0 mm 0 W/m2
21:13 -9.4 °C -12.1 °C 1021.9 hPa Calm     81% 0 mm 0 W/m2
21:20 -9.5 °C -12 °C 1021.9 hPa Calm     82% 0 mm 0 W/m2
21:26 -9.4 °C -11.9 °C 1021.6 hPa Calm     82% 0 mm 0 W/m2
21:32 -9.5 °C -12 °C 1021.6 hPa Calm     82% 0 mm 0 W/m2
21:38 -9.5 °C -12 °C 1021.6 hPa Calm     82% 0 mm 0 W/m2
21:44 -9.4 °C -11.8 °C 1021.6 hPa Calm     83% 0 mm 0 W/m2
21:50 -9.4 °C -11.8 °C 1021.6 hPa Calm     83% 0 mm 0 W/m2
21:55 -9.4 °C -11.8 °C 1021.2 hPa Calm     83% 0 mm 0 W/m2
22:02 -9.4 °C -11.7 °C 1021.2 hPa Calm     83% 0 mm 0 W/m2
22:08 -9.3 °C -11.6 °C 1021.2 hPa Calm     83% 0 mm 0 W/m2
22:13 -9.2 °C -11.5 °C 1021.2 hPa Calm     83% 0 mm 0 W/m2
22:19 -9 °C -11.3 °C 1020.9 hPa Calm     83% 0 mm 0 W/m2
22:26 -8.8 °C -11.2 °C 1021.2 hPa Calm     83% 0 mm 0 W/m2
22:32 -8.7 °C -11.1 °C 1021.2 hPa Calm     83% 0 mm 0 W/m2
22:38 -8.4 °C -10.8 °C 1021.2 hPa Calm     83% 0 mm 0 W/m2
22:43 -8.3 °C -10.7 °C 1021.2 hPa Calm     83% 0 mm 0 W/m2
22:50 -8.1 °C -10.6 °C 1021.2 hPa Calm     82% 0 mm 0 W/m2
22:56 -7.8 °C -10.4 °C 1020.9 hPa Calm     81% 0 mm 0 W/m2
23:02 -7.4 °C -10.3 °C 1020.9 hPa Calm     80% 0 mm 0 W/m2
23:08 -7.3 °C -10.3 °C 1020.9 hPa Calm     79% 0 mm 0 W/m2
23:14 -7.1 °C -10.3 °C 1020.5 hPa Calm     78% 0 mm 0 W/m2
23:19 -7.1 °C -10.1 °C 1020.5 hPa Calm     79% 0 mm 0 W/m2
23:25 -7.3 °C -10.4 °C 1020.5 hPa Calm     78% 0 mm 0 W/m2
23:32 -7.4 °C -10.6 °C 1020.2 hPa Calm     78% 0 mm 0 W/m2
23:38 -7.4 °C -10.6 °C 1020.2 hPa Calm     78% 0 mm 0 W/m2
23:43 -7.6 °C -10.9 °C 1020.2 hPa Calm     77% 0 mm 0 W/m2
23:49 -7.7 °C -10.8 °C 1020.2 hPa Calm     78% 0 mm 0 W/m2
23:56 -7.8 °C -10.9 °C 1020.2 hPa Calm     78% 0 mm 0 W/m2
Country Meadow, Clay, NY, USA
Compliments of Weather Underground - 2 mb